Change the Weather History Date:

Saturday, November 15, 2014

  Actual Average Record
Temperature  
Mean Temperature 31 °F 40 °F  
Max Temperature 39 °F 48 °F 74 °F (1993)
Min Temperature 23 °F 32 °F 14 °F (1939)
Degree Days  
Heating Degree Days 34 25  
Month to date heating degree days 333 342  
Since 1 July heating degree days 813 987  
Cooling Degree Days 0 0  
Month to date cooling degree days 0 0  
Year to date cooling degree days 659 598  
Moisture  
Dew Point 17 °F    
Average Humidity 58    
Maximum Humidity 75    
Minimum Humidity 40    
Precipitation  
Precipitation 0.00 in 0.11 in 1.48 in (2007)
Month to date precipitation 0.42 1.64  
Year to date precipitation 32.31 34.77  
Snow  
Snow 0.00 in 0.00 in 4.80 in (1906)
Month to date snowfall 0.1 0.7  
Since 1 July snowfall 0.1 0.7  
Since 1 September snowfall 0.1 0.7  
Snow Depth 0.00 in    
Sea Level Pressure  
Sea Level Pressure 30.29 in    
Wind  
Wind Speed 8 mph (West)    
Max Wind Speed 18 mph    
Max Gust Speed 24 mph    
Visibility 10 miles    
Events      
T = Trace of Precipitation, MM = Missing Value Source: NWS Daily Summary

Daily Weather History Graph

Daily Weather History Graph

Search for Another Location

Airport or City:

Trip Planner

Search our weather history database for the weather conditions in past years. The results will help you decide how hot, cold, wet, or windy it might be!

Date:

Astronomy

Nov. 15, 2014 Rise Set
Actual Time 6:46 AM EST 4:32 PM EST
Civil Twilight 6:16 AM EST 5:02 PM EST
Nautical Twilight 5:42 AM EST 5:36 PM EST
Astronomical Twilight 5:08 AM EST 6:10 PM EST
Moon No Moon Rise 1:02 PM EST (11/15)
Length of Visible Light 10h 46m
Length of Day
9h 45m
Last Quarter, 40% of the Moon is Illuminated
Nov 15
Last Quarter
Nov 22
New
Nov 29
First Quarter
Dec 6
Full
Dec 14
Last Quarter

Hourly Weather History & Observations

Time (EST) Temp. Windchill Dew Point Humidity Pressure Visibility Wind Dir Wind Speed Gust Speed Precip Events Conditions
12:51 AM 28.0 °F 20.8 °F 19.9 °F 72% 30.18 in 10.0 mi West 6.9 mph - N/A   Partly Cloudy
1:51 AM 27.0 °F 18.0 °F 19.0 °F 72% 30.20 in 10.0 mi West 9.2 mph - N/A   Partly Cloudy
2:51 AM 27.0 °F 19.5 °F 19.0 °F 72% 30.21 in 10.0 mi West 6.9 mph - N/A   Mostly Cloudy
3:51 AM 26.1 °F 19.4 °F 18.0 °F 71% 30.23 in 10.0 mi West 5.8 mph - N/A   Scattered Clouds
4:51 AM 25.0 °F 17.1 °F 18.0 °F 75% 30.24 in 10.0 mi West 6.9 mph - N/A   Partly Cloudy
5:51 AM 26.1 °F 17.6 °F 18.0 °F 71% 30.26 in 10.0 mi West 8.1 mph - N/A   Mostly Cloudy
6:51 AM 26.1 °F 16.8 °F 17.1 °F 69% 30.27 in 10.0 mi West 9.2 mph - N/A   Partly Cloudy
7:51 AM 28.0 °F 19.3 °F 18.0 °F 66% 30.30 in 10.0 mi West 9.2 mph - N/A   Partly Cloudy
8:51 AM 30.0 °F 20.0 °F 16.0 °F 56% 30.32 in 10.0 mi WNW 12.7 mph - N/A   Clear
9:51 AM 32.0 °F 21.6 °F 15.1 °F 50% 30.33 in 10.0 mi NW 15.0 mph - N/A   Partly Cloudy
10:51 AM 34.0 °F 25.0 °F 14.0 °F 44% 30.33 in 10.0 mi NW 12.7 mph - N/A   Partly Cloudy
11:51 AM 36.0 °F 29.0 °F 15.1 °F 43% 30.31 in 10.0 mi WNW 9.2 mph 17.3 mph N/A   Partly Cloudy
12:51 PM 37.9 °F 31.5 °F 15.1 °F 39% 30.30 in 10.0 mi WNW 9.2 mph 24.2 mph N/A   Partly Cloudy
1:51 PM 37.9 °F 28.9 °F 16.0 °F 41% 30.29 in 10.0 mi WNW 16.1 mph 21.9 mph N/A   Partly Cloudy
2:51 PM 37.9 °F 29.2 °F 16.0 °F 41% 30.29 in 10.0 mi WNW 15.0 mph - N/A   Partly Cloudy
3:51 PM 36.0 °F 28.5 °F 16.0 °F 44% 30.31 in 10.0 mi West 10.4 mph - N/A   Partly Cloudy
4:51 PM 33.1 °F 27.7 °F 17.1 °F 52% 30.32 in 10.0 mi West 5.8 mph - N/A   Partly Cloudy
5:51 PM 30.0 °F 26.5 °F 17.1 °F 59% 30.33 in 10.0 mi SW 3.5 mph - N/A   Partly Cloudy
6:51 PM 28.9 °F - 18.0 °F 64% 30.33 in 10.0 mi Calm Calm - N/A   Clear
7:51 PM 27.0 °F - 18.0 °F 69% 30.34 in 10.0 mi Calm Calm - N/A   Clear
8:51 PM 25.0 °F - 17.1 °F 72% 30.35 in 10.0 mi Calm Calm - N/A   Clear
9:51 PM 25.0 °F - 17.1 °F 72% 30.34 in 10.0 mi Calm Calm - N/A   Clear
10:51 PM 24.1 °F 19.7 °F 17.1 °F 75% 30.33 in 10.0 mi South 3.5 mph - N/A   Partly Cloudy
11:51 PM 26.1 °F 18.4 °F 18.0 °F 71% 30.33 in 10.0 mi South 6.9 mph - N/A   Partly Cloudy